West Memphis, AR

5:05 AM CDT on April 30, 2017 (GMT -0500)
West Memphis Municipal

Weather History for KAWM - December, 2013

Change the Weather History Date:

Thursday, December 5, 2013

  Actual Average Record
Temperature  
Mean Temperature 50 °F -  
Max Temperature 68 °F 55 °F 69 °F (1977)
Min Temperature 33 °F 35 °F 21 °F (1981)
Degree Days  
Heating Degree Days 14    
Moisture  
Dew Point 44 °F    
Average Humidity 87    
Maximum Humidity 100    
Minimum Humidity 73    
Precipitation  
Precipitation 0.73 in - - ()
Sea Level Pressure  
Sea Level Pressure 30.00 in    
Wind  
Wind Speed 11 mph (North)    
Max Wind Speed 20 mph    
Max Gust Speed 29 mph    
Visibility 8 miles    
Events Rain , Snow , Thunderstorm    
Averages and records for this station are not official NWS values.
T = Trace of Precipitation, MM = Missing Value Source: NWS Daily Summary

Daily Weather History Graph

Daily Weather History Graph

Search for Another Location

Airport or City:

Trip Planner

Search our weather history database for the weather conditions in past years. The results will help you decide how hot, cold, wet, or windy it might be!

Date:

Astronomy

Dec. 05, 2013 Rise Set
Actual Time 6:54 AM CST 4:48 PM CST
Civil Twilight 6:26 AM CST 5:16 PM CST
Nautical Twilight 5:55 AM CST 5:48 PM CST
Astronomical Twilight 5:24 AM CST 6:18 PM CST
Moon 9:17 AM CST (12/5) 8:05 PM CST (12/5)
Length of Visible Light 10h 50m
Length of Day
9h 54m
Waxing Crescent, 11% of the Moon is Illuminated
Dec 5
Waxing Crescent
Dec 9
First Quarter
Dec 17
Full
Dec 25
Last Quarter
Jan 1
New

Hourly Weather History & Observations

Time (CST) Temp. Windchill Dew Point Humidity Pressure Visibility Wind Dir Wind Speed Gust Speed Precip Events Conditions
12:53 AM 68.0 °F - 63.0 °F 84% 29.81 in 10.0 mi SSW 10.4 mph - N/A   Mostly Cloudy
1:53 AM 68.0 °F - 63.0 °F 84% 29.81 in 10.0 mi South 11.5 mph - N/A   Clear
2:41 AM 68.0 °F - 62.6 °F 83% 29.82 in 10.0 mi South 11.5 mph - N/A   Overcast
2:53 AM 68.0 °F - 64.0 °F 87% 29.82 in 10.0 mi South 11.5 mph - N/A   Mostly Cloudy
3:24 AM 66.2 °F - 60.8 °F 83% 29.84 in 10.0 mi WNW 8.1 mph - N/A   Overcast
3:53 AM 59.0 °F - 53.1 °F 81% 29.85 in 10.0 mi NW 4.6 mph - N/A   Overcast
4:53 AM 57.9 °F - 52.0 °F 81% 29.88 in 10.0 mi Variable 5.8 mph - N/A   Overcast
5:43 AM 53.6 °F - 50.0 °F 88% 29.91 in 6.0 mi NNW 9.2 mph 17.3 mph 0.02 in Rain Light Rain
5:53 AM 53.1 °F - 50.0 °F 89% 29.92 in 6.0 mi NNW 6.9 mph - 0.02 in Rain Light Rain
6:53 AM 51.1 °F - 46.9 °F 86% 29.95 in 10.0 mi North 8.1 mph - 0.04 in Rain Light Rain
7:05 AM 50.0 °F - 46.4 °F 87% 29.96 in 8.0 mi North 10.4 mph 18.4 mph 0.01 in Rain , Thunderstorm Light Rain
7:28 AM 48.2 °F - 46.4 °F 93% 29.99 in 3.0 mi North 8.1 mph 17.3 mph 0.11 in Rain , Thunderstorm Heavy Thunderstorms and Rain
7:39 AM 48.2 °F - 46.4 °F 93% 29.99 in 2.5 mi North 10.4 mph - 0.24 in Rain , Thunderstorm Heavy Thunderstorms and Rain
7:44 AM 48.2 °F - 46.4 °F 93% 29.99 in 1.8 mi North 10.4 mph 17.3 mph 0.33 in Rain Heavy Rain
7:53 AM 48.0 °F - 46.0 °F 93% 30.01 in 2.0 mi NW 9.2 mph 20.7 mph 0.46 in Rain Heavy Rain
8:00 AM 46.4 °F 43.5 °F 46.4 °F 100% 30.01 in 1.5 mi NNW 5.8 mph - 0.08 in Rain Heavy Rain
8:06 AM 48.2 °F - 46.4 °F 93% 30.01 in 3.0 mi NNW 6.9 mph - 0.08 in Rain Light Rain
8:53 AM 46.9 °F - 44.1 °F 90% 30.03 in 10.0 mi NNW 8.1 mph 17.3 mph 0.09 in   Overcast
9:53 AM 46.0 °F 39.9 °F 42.1 °F 86% 30.04 in 8.0 mi North 13.8 mph 21.9 mph N/A   Overcast
10:29 AM 46.4 °F 40.7 °F 42.8 °F 87% 30.05 in 8.0 mi North 12.7 mph - N/A   Overcast
10:53 AM 45.0 °F 39.3 °F 42.1 °F 90% 30.06 in 6.0 mi North 11.5 mph 21.9 mph N/A   Overcast
11:53 AM 45.0 °F 37.4 °F 39.0 °F 80% 30.03 in 10.0 mi NNE 18.4 mph 26.5 mph N/A   Overcast
12:53 PM 42.1 °F 33.9 °F 36.0 °F 79% 30.04 in 7.0 mi NNE 17.3 mph 24.2 mph 0.00 in Rain Light Rain
1:53 PM 41.0 °F 32.2 °F 33.1 °F 73% 30.03 in 10.0 mi NNE 18.4 mph 28.8 mph 0.00 in   Overcast
2:53 PM 39.0 °F 29.6 °F 32.0 °F 76% 30.06 in 10.0 mi North 18.4 mph 25.3 mph N/A   Overcast
3:53 PM 37.0 °F 26.7 °F 32.0 °F 82% 30.09 in 8.0 mi North 19.6 mph 26.5 mph 0.01 in Rain Light Rain
4:31 PM 35.6 °F 26.2 °F 32.0 °F 87% 30.08 in 10.0 mi NNE 15.0 mph 27.6 mph 0.00 in   Overcast
4:53 PM 36.0 °F 26.3 °F 32.0 °F 86% 30.09 in 10.0 mi NNE 16.1 mph 24.2 mph 0.00 in   Overcast
5:53 PM 36.0 °F 26.0 °F 32.0 °F 86% 30.07 in 10.0 mi NNE 17.3 mph 20.7 mph N/A   Overcast
6:53 PM 36.0 °F 26.3 °F 32.0 °F 86% 30.09 in 10.0 mi North 16.1 mph - N/A   Overcast
7:53 PM 35.1 °F 24.8 °F 33.1 °F 92% 30.12 in 4.0 mi North 17.3 mph - 0.00 in Snow Light Snow
8:53 PM 33.1 °F 24.9 °F 33.1 °F 100% 30.14 in 5.0 mi NNE 10.4 mph 23.0 mph 0.03 in Rain Light Rain
9:53 PM 33.1 °F 23.9 °F 33.1 °F 100% 30.12 in 9.0 mi North 12.7 mph 27.6 mph 0.04 in Rain Light Rain
10:36 PM 33.8 °F 24.3 °F - N/A% 30.18 in 6.0 mi North 13.8 mph - 0.01 in Rain Light Rain
10:53 PM 33.1 °F 23.4 °F - N/A% 30.16 in 5.0 mi NNE 13.8 mph 23.0 mph 0.02 in   Overcast
11:53 PM 33.1 °F 23.9 °F - N/A% 30.11 in 9.0 mi NNE 12.7 mph 21.9 mph 0.02 in Rain Light Rain